User: anonymous   Login
Location: *
(40.7765°S, 106.5327°E)
Time: 14:07:01
(UTC+00:00)
Language:

GPS 2-04 Rocket1 - Orbit

View from above orbital plane
View from above orbital plane
View from above satellite
View from above satellite

Ground track
Ground track

The orbit data is extracted from the following two-line orbital elements,

1 20303U 89085B   22221.41553763  .00013962  00000-0  34566-3 0  9999
2 20303  35.6387 110.9196 0079127 328.0271  31.5674 15.36377478788064
Epoch (UTC): 09 August 2022 09:58:22
Eccentricity: 0.0079127
inclination: 35.6387°
perigee height: 403 km
apogee height: 511 km
right ascension of ascending node: 110.9196°
argument of perigee: 328.0271°
revolutions per day: 15.36377478
mean anomaly at epoch: 31.5674°
orbit number at epoch: 78806

The dashed part of the orbit path shows where the satellite is in the earth's shadow,  

DLR